Time,TemperatureF,DewpointF,PressureIn,WindDirection,WindDirectionDegrees,WindSpeedMPH,WindSpeedGustMPH,Humidity,HourlyPrecipIn,Conditions,Clouds,dailyrainin,SoftwareType,DateUTC
2013-03-29 00:00:00,39.7,30.4,30.00,WNW,293,2.5,4.0,69,0.00,,,0.02,WUHU216HW,2013-03-29 04:00:00,
2013-03-29 00:05:00,39.7,30.1,30.00,West,270,2.5,3.4,68,0.00,,,0.00,WUHU216HW,2013-03-29 04:05:00,
2013-03-29 00:10:00,39.5,30.6,30.00,WNW,293,2.0,3.1,70,0.00,,,0.00,WUHU216HW,2013-03-29 04:10:00,
2013-03-29 00:15:00,39.5,30.2,30.00,WNW,293,2.5,3.6,69,0.00,,,0.00,WUHU216HW,2013-03-29 04:15:00,
2013-03-29 00:20:00,39.5,30.6,30.00,WSW,248,4.0,4.0,70,0.00,,,0.00,WUHU216HW,2013-03-29 04:20:00,
2013-03-29 00:25:00,39.4,30.5,30.00,WNW,293,3.1,4.7,70,0.00,,,0.00,WUHU216HW,2013-03-29 04:25:00,
2013-03-29 00:30:00,39.4,30.5,30.00,WNW,293,4.5,4.7,70,0.00,,,0.00,WUHU216HW,2013-03-29 04:30:00,
2013-03-29 00:35:00,39.4,30.5,30.00,West,270,2.7,4.9,70,0.00,,,0.00,WUHU216HW,2013-03-29 04:35:00,
2013-03-29 00:40:00,39.4,30.2,30.00,WNW,293,3.1,4.9,69,0.00,,,0.00,WUHU216HW,2013-03-29 04:40:00,
2013-03-29 00:45:00,39.4,30.2,30.00,WNW,293,4.7,4.9,69,0.00,,,0.00,WUHU216HW,2013-03-29 04:45:00,
2013-03-29 00:50:00,39.4,30.2,30.00,WNW,293,5.1,7.6,69,0.00,,,0.00,WUHU216HW,2013-03-29 04:50:00,
2013-03-29 00:55:00,39.5,29.9,30.00,WNW,293,2.7,7.6,68,0.00,,,0.00,WUHU216HW,2013-03-29 04:55:00,
2013-03-29 01:00:00,39.4,29.8,30.00,NW,315,5.6,5.8,68,0.00,,,0.00,WUHU216HW,2013-03-29 05:00:00,
2013-03-29 01:05:00,39.5,30.2,30.00,WNW,293,4.5,6.3,69,0.00,,,0.00,WUHU216HW,2013-03-29 05:05:00,
2013-03-29 01:10:00,39.7,30.1,30.00,WNW,293,6.0,6.3,68,0.00,,,0.00,WUHU216HW,2013-03-29 05:10:00,
2013-03-29 01:15:00,39.7,30.1,30.00,West,270,5.4,6.0,68,0.00,,,0.00,WUHU216HW,2013-03-29 05:15:00,
2013-03-29 01:20:00,39.7,30.1,30.00,WSW,248,7.2,7.2,68,0.00,,,0.00,WUHU216HW,2013-03-29 05:20:00,
2013-03-29 01:25:00,39.7,30.1,30.00,WSW,248,6.0,7.6,68,0.00,,,0.00,WUHU216HW,2013-03-29 05:25:00,
2013-03-29 01:30:00,39.5,29.9,30.00,West,270,3.6,7.6,68,0.00,,,0.00,WUHU216HW,2013-03-29 05:30:00,
2013-03-29 01:35:00,39.4,29.4,30.00,West,270,2.0,5.4,67,0.00,,,0.00,WUHU216HW,2013-03-29 05:35:00,
2013-03-29 01:40:00,39.2,29.2,30.00,WNW,293,4.7,6.0,67,0.00,,,0.00,WUHU216HW,2013-03-29 05:40:00,
2013-03-29 01:45:00,39.2,29.6,30.00,WNW,293,4.7,6.0,68,0.00,,,0.00,WUHU216HW,2013-03-29 05:45:00,
2013-03-29 01:50:00,39.0,29.4,30.00,West,270,3.1,5.6,68,0.00,,,0.00,WUHU216HW,2013-03-29 05:50:00,
2013-03-29 01:55:00,39.0,29.0,30.00,WNW,293,5.1,5.6,67,0.00,,,0.00,WUHU216HW,2013-03-29 05:55:00,
2013-03-29 02:00:00,39.0,29.4,30.00,WNW,293,5.8,5.8,68,0.00,,,0.00,WUHU216HW,2013-03-29 06:00:00,
2013-03-29 02:05:00,39.0,29.0,30.00,West,270,4.0,6.3,67,0.00,,,0.00,WUHU216HW,2013-03-29 06:05:00,
2013-03-29 02:10:00,38.8,28.9,30.00,NNW,338,3.4,6.3,67,0.00,,,0.00,WUHU216HW,2013-03-29 06:10:00,
2013-03-29 02:15:00,38.8,29.2,30.00,WNW,293,3.1,5.1,68,0.00,,,0.00,WUHU216HW,2013-03-29 06:15:00,
2013-03-29 02:20:00,38.6,29.0,30.00,West,270,3.8,5.4,68,0.00,,,0.00,WUHU216HW,2013-03-29 06:20:00,
2013-03-29 02:25:00,38.6,29.0,30.00,West,270,4.7,5.4,68,0.00,,,0.00,WUHU216HW,2013-03-29 06:25:00,
2013-03-29 02:30:00,38.6,29.0,30.00,NW,315,4.3,5.4,68,0.00,,,0.00,WUHU216HW,2013-03-29 06:30:00,
2013-03-29 02:35:00,38.5,28.9,30.00,WNW,293,5.1,5.4,68,0.00,,,0.00,WUHU216HW,2013-03-29 06:35:00,
2013-03-29 02:40:00,38.5,28.9,30.00,WNW,293,3.8,5.6,68,0.00,,,0.00,WUHU216HW,2013-03-29 06:40:00,
2013-03-29 02:45:00,38.5,29.6,30.00,WNW,293,3.1,5.6,70,0.00,,,0.00,WUHU216HW,2013-03-29 06:45:00,
2013-03-29 02:50:00,38.5,30.0,30.00,WNW,293,4.7,5.1,71,0.00,,,0.00,WUHU216HW,2013-03-29 06:50:00,
2013-03-29 02:55:00,38.5,30.0,30.00,NW,315,4.5,5.1,71,0.00,,,0.00,WUHU216HW,2013-03-29 06:55:00,
2013-03-29 03:00:00,38.3,29.8,30.00,NW,315,4.0,5.4,71,0.00,,,0.00,WUHU216HW,2013-03-29 07:00:00,
2013-03-29 03:05:00,38.3,29.8,30.00,West,270,5.1,5.8,71,0.00,,,0.00,WUHU216HW,2013-03-29 07:05:00,
2013-03-29 03:10:00,38.1,29.3,30.00,WNW,293,4.3,5.8,70,0.00,,,0.00,WUHU216HW,2013-03-29 07:10:00,
2013-03-29 03:15:00,38.1,29.6,30.00,WNW,293,4.0,7.2,71,0.00,,,0.00,WUHU216HW,2013-03-29 07:15:00,
2013-03-29 03:20:00,38.1,29.6,29.99,West,270,4.5,7.2,71,0.00,,,0.00,WUHU216HW,2013-03-29 07:20:00,
2013-03-29 03:25:00,37.9,29.4,29.99,WNW,293,4.0,6.3,71,0.00,,,0.00,WUHU216HW,2013-03-29 07:25:00,
2013-03-29 03:30:00,37.9,29.4,29.99,WNW,293,5.6,5.6,71,0.00,,,0.00,WUHU216HW,2013-03-29 07:30:00,
2013-03-29 03:35:00,38.1,29.3,30.00,WNW,293,5.4,6.9,70,0.00,,,0.00,WUHU216HW,2013-03-29 07:35:00,
2013-03-29 03:40:00,38.1,29.6,29.99,NNW,338,4.7,6.9,71,0.00,,,0.00,WUHU216HW,2013-03-29 07:40:00,
2013-03-29 03:45:00,38.1,29.3,29.99,WNW,293,4.9,6.0,70,0.00,,,0.00,WUHU216HW,2013-03-29 07:45:00,
2013-03-29 03:50:00,38.1,29.3,29.99,North,0,2.9,5.8,70,0.00,,,0.00,WUHU216HW,2013-03-29 07:50:00,
2013-03-29 03:55:00,38.1,29.3,29.99,WNW,293,2.9,5.8,70,0.00,,,0.00,WUHU216HW,2013-03-29 07:55:00,
2013-03-29 04:00:00,38.1,29.3,29.99,WNW,293,1.8,5.4,70,0.00,,,0.00,WUHU216HW,2013-03-29 08:00:00,
2013-03-29 04:05:00,38.1,29.3,29.99,WNW,293,3.1,4.7,70,0.00,,,0.00,WUHU216HW,2013-03-29 08:05:00,
2013-03-29 04:10:00,38.1,29.3,29.99,NW,315,3.1,5.1,70,0.00,,,0.00,WUHU216HW,2013-03-29 08:10:00,
2013-03-29 04:15:00,38.3,29.4,29.99,West,270,4.7,6.7,70,0.00,,,0.00,WUHU216HW,2013-03-29 08:15:00,
2013-03-29 04:20:00,38.3,29.8,29.99,WSW,248,2.0,6.7,71,0.00,,,0.00,WUHU216HW,2013-03-29 08:20:00,
2013-03-29 04:25:00,38.1,29.6,29.99,West,270,2.9,4.9,71,0.00,,,0.00,WUHU216HW,2013-03-29 08:25:00,
2013-03-29 04:30:00,37.9,29.7,29.99,WNW,293,4.0,4.7,72,0.00,,,0.00,WUHU216HW,2013-03-29 08:30:00,
2013-03-29 04:35:00,37.9,29.4,29.99,WNW,293,3.1,4.7,71,0.00,,,0.00,WUHU216HW,2013-03-29 08:35:00,
2013-03-29 04:40:00,37.9,29.7,29.99,WNW,293,3.4,5.1,72,0.00,,,0.00,WUHU216HW,2013-03-29 08:40:00,
2013-03-29 04:45:00,37.9,29.7,29.99,West,270,3.4,5.1,72,0.00,,,0.00,WUHU216HW,2013-03-29 08:45:00,
2013-03-29 04:50:00,37.9,29.7,29.99,NW,315,3.1,4.7,72,0.00,,,0.00,WUHU216HW,2013-03-29 08:50:00,
2013-03-29 04:55:00,37.9,29.7,29.99,WNW,293,4.0,5.4,72,0.00,,,0.00,WUHU216HW,2013-03-29 08:55:00,
2013-03-29 05:00:00,37.9,29.7,29.99,WNW,293,4.7,5.4,72,0.00,,,0.00,WUHU216HW,2013-03-29 09:00:00,
2013-03-29 05:05:00,37.9,29.7,29.99,NW,315,3.4,5.4,72,0.00,,,0.00,WUHU216HW,2013-03-29 09:05:00,
2013-03-29 05:10:00,37.9,29.7,29.99,WNW,293,4.5,6.0,72,0.00,,,0.00,WUHU216HW,2013-03-29 09:10:00,
2013-03-29 05:15:00,38.1,30.3,29.99,West,270,3.1,6.0,73,0.00,,,0.00,WUHU216HW,2013-03-29 09:15:00,
2013-03-29 05:20:00,38.1,30.3,30.00,WNW,293,2.9,4.7,73,0.00,,,0.00,WUHU216HW,2013-03-29 09:20:00,
2013-03-29 05:25:00,38.1,30.3,29.99,WNW,293,2.5,4.7,73,0.00,,,0.00,WUHU216HW,2013-03-29 09:25:00,
2013-03-29 05:30:00,38.3,30.5,29.99,NW,315,4.3,6.0,73,0.00,,,0.00,WUHU216HW,2013-03-29 09:30:00,
2013-03-29 05:35:00,38.3,30.1,30.00,WNW,293,3.4,6.0,72,0.00,,,0.00,WUHU216HW,2013-03-29 09:35:00,
2013-03-29 05:40:00,38.3,30.1,30.00,WNW,293,4.0,6.3,72,0.00,,,0.00,WUHU216HW,2013-03-29 09:40:00,
2013-03-29 05:45:00,38.3,30.1,29.99,West,270,4.5,6.3,72,0.00,,,0.00,WUHU216HW,2013-03-29 09:45:00,
2013-03-29 05:50:00,38.3,30.1,29.99,West,270,4.0,6.9,72,0.00,,,0.00,WUHU216HW,2013-03-29 09:50:00,
2013-03-29 05:55:00,38.3,30.1,29.99,West,270,3.4,7.6,72,0.00,,,0.00,WUHU216HW,2013-03-29 09:55:00,
2013-03-29 06:00:00,38.3,30.1,30.00,WSW,248,6.9,7.6,72,0.00,,,0.00,WUHU216HW,2013-03-29 10:00:00,
2013-03-29 06:05:00,38.5,30.4,30.00,West,270,4.0,7.4,72,0.00,,,0.00,WUHU216HW,2013-03-29 10:05:00,
2013-03-29 06:10:00,38.6,30.1,30.00,NW,315,5.4,7.4,71,0.00,,,0.00,WUHU216HW,2013-03-29 10:10:00,
2013-03-29 06:15:00,38.6,30.4,30.00,NW,315,5.8,8.1,72,0.00,,,0.00,WUHU216HW,2013-03-29 10:15:00,
2013-03-29 06:20:00,38.5,30.3,30.00,WNW,293,3.8,8.1,72,0.00,,,0.00,WUHU216HW,2013-03-29 10:20:00,
2013-03-29 06:25:00,38.5,30.3,30.00,WNW,293,3.6,7.4,72,0.00,,,0.00,WUHU216HW,2013-03-29 10:25:00,
2013-03-29 06:30:00,38.1,30.0,30.00,WNW,293,3.6,7.4,72,0.00,,,0.00,WUHU216HW,2013-03-29 10:30:00,
2013-03-29 06:35:00,38.0,30.1,30.00,WNW,293,3.4,6.3,73,0.00,,,0.00,WUHU216HW,2013-03-29 10:35:00,
2013-03-29 06:40:00,37.9,30.4,30.00,West,270,4.7,5.4,74,0.00,,,0.00,WUHU216HW,2013-03-29 10:40:00,
2013-03-29 06:45:00,37.9,30.4,30.00,WNW,293,4.0,6.3,74,0.00,,,0.00,WUHU216HW,2013-03-29 10:45:00,
2013-03-29 06:50:00,38.1,30.6,30.00,West,270,6.0,6.7,74,0.00,,,0.00,WUHU216HW,2013-03-29 10:50:00,
2013-03-29 06:55:00,38.1,30.6,30.00,WNW,293,6.0,6.7,74,0.00,,,0.00,WUHU216HW,2013-03-29 10:55:00,
2013-03-29 07:00:00,38.5,30.7,30.01,WNW,293,6.7,8.9,73,0.00,,,0.00,WUHU216HW,2013-03-29 11:00:00,
2013-03-29 07:05:00,38.8,30.9,30.00,WNW,293,6.0,8.9,73,0.00,,,0.00,WUHU216HW,2013-03-29 11:05:00,
2013-03-29 07:10:00,38.8,31.0,30.01,West,270,6.0,8.5,73,0.00,,,0.00,WUHU216HW,2013-03-29 11:10:00,
2013-03-29 07:15:00,39.1,31.3,30.01,WNW,293,4.5,6.9,73,0.00,,,0.00,WUHU216HW,2013-03-29 11:15:00,
2013-03-29 07:20:00,39.6,31.4,30.01,WSW,248,6.9,7.8,72,0.00,,,0.00,WUHU216HW,2013-03-29 11:20:00,
2013-03-29 07:25:00,40.1,31.5,30.01,WNW,293,6.9,7.8,71,0.00,,,0.00,WUHU216HW,2013-03-29 11:25:00,
2013-03-29 07:30:00,40.7,32.1,30.01,NW,315,6.0,6.9,71,0.00,,,0.00,WUHU216HW,2013-03-29 11:30:00,
2013-03-29 07:35:00,41.0,32.0,30.01,WNW,293,5.6,7.4,70,0.00,,,0.00,WUHU216HW,2013-03-29 11:35:00,
2013-03-29 07:40:00,41.1,32.2,30.01,SW,225,4.5,7.4,70,0.00,,,0.00,WUHU216HW,2013-03-29 11:40:00,
2013-03-29 07:45:00,41.3,32.7,30.01,West,270,6.0,7.4,71,0.00,,,0.00,WUHU216HW,2013-03-29 11:45:00,
2013-03-29 07:50:00,41.8,32.8,30.01,WNW,293,4.7,7.6,70,0.00,,,0.00,WUHU216HW,2013-03-29 11:50:00,
2013-03-29 07:55:00,42.3,33.3,30.01,NW,315,6.3,7.6,70,0.00,,,0.00,WUHU216HW,2013-03-29 11:55:00,
2013-03-29 08:00:00,42.7,33.4,30.01,WNW,293,6.0,7.8,69,0.00,,,0.00,WUHU216HW,2013-03-29 12:00:00,
2013-03-29 08:05:00,43.5,34.1,30.01,WNW,293,5.8,7.8,69,0.00,,,0.00,WUHU216HW,2013-03-29 12:05:00,
2013-03-29 08:10:00,43.9,34.5,30.01,WNW,293,4.7,7.6,69,0.00,,,0.00,WUHU216HW,2013-03-29 12:10:00,
2013-03-29 08:15:00,44.8,35.0,30.01,WNW,293,3.8,9.8,68,0.00,,,0.00,WUHU216HW,2013-03-29 12:15:00,
2013-03-29 08:20:00,45.6,35.0,30.01,NW,315,3.4,9.8,66,0.00,,,0.00,WUHU216HW,2013-03-29 12:20:00,
2013-03-29 08:25:00,46.3,35.3,30.01,WNW,293,5.6,9.4,65,0.00,,,0.00,WUHU216HW,2013-03-29 12:25:00,
2013-03-29 08:30:00,47.0,35.6,30.01,NW,315,7.4,9.8,64,0.00,,,0.00,WUHU216HW,2013-03-29 12:30:00,
2013-03-29 08:35:00,47.1,35.2,30.01,West,270,8.3,11.0,63,0.00,,,0.00,WUHU216HW,2013-03-29 12:35:00,
2013-03-29 08:40:00,47.1,35.2,30.01,NW,315,6.9,13.6,63,0.00,,,0.00,WUHU216HW,2013-03-29 12:40:00,
2013-03-29 08:45:00,47.1,35.3,30.01,SSE,158,6.3,13.6,63,0.00,,,0.00,WUHU216HW,2013-03-29 12:45:00,
2013-03-29 08:50:00,47.1,35.3,30.01,West,270,5.4,11.0,63,0.00,,,0.00,WUHU216HW,2013-03-29 12:50:00,
2013-03-29 08:55:00,47.2,35.3,30.01,North,0,6.5,11.0,63,0.00,,,0.00,WUHU216HW,2013-03-29 12:55:00,
2013-03-29 09:00:00,47.0,35.1,30.01,NW,315,6.9,11.0,63,0.00,,,0.00,WUHU216HW,2013-03-29 13:00:00,
2013-03-29 09:05:00,46.9,35.1,30.01,WNW,293,7.2,11.0,63,0.00,,,0.00,WUHU216HW,2013-03-29 13:05:00,
2013-03-29 09:10:00,46.8,34.9,30.01,NNW,338,10.1,10.5,63,0.00,,,0.00,WUHU216HW,2013-03-29 13:10:00,
2013-03-29 09:15:00,47.0,35.1,30.01,North,0,7.6,10.1,63,0.00,,,0.00,WUHU216HW,2013-03-29 13:15:00,
2013-03-29 09:20:00,47.0,35.6,30.01,WNW,293,6.9,10.1,64,0.00,,,0.00,WUHU216HW,2013-03-29 13:20:00,
2013-03-29 09:25:00,47.0,35.6,30.01,NW,315,9.2,10.5,64,0.00,,,0.00,WUHU216HW,2013-03-29 13:25:00,
2013-03-29 09:30:00,47.2,35.3,30.02,NNW,338,4.7,10.5,63,0.00,,,0.00,WUHU216HW,2013-03-29 13:30:00,
2013-03-29 09:35:00,47.4,35.5,30.02,West,270,6.7,9.2,63,0.00,,,0.00,WUHU216HW,2013-03-29 13:35:00,
2013-03-29 09:40:00,47.6,35.7,30.02,West,270,5.1,8.3,63,0.00,,,0.00,WUHU216HW,2013-03-29 13:40:00,
2013-03-29 09:45:00,47.6,35.7,30.02,NW,315,5.6,8.7,63,0.00,,,0.00,WUHU216HW,2013-03-29 13:45:00,
2013-03-29 09:50:00,47.6,35.8,30.02,NW,315,4.7,8.7,63,0.00,,,0.00,WUHU216HW,2013-03-29 13:50:00,
2013-03-29 09:55:00,47.7,35.8,30.02,NW,315,5.4,7.2,63,0.00,,,0.00,WUHU216HW,2013-03-29 13:55:00,
2013-03-29 10:00:00,47.7,35.4,30.02,NW,315,8.1,8.3,62,0.00,,,0.00,WUHU216HW,2013-03-29 14:00:00,
2013-03-29 10:05:00,47.7,35.8,30.02,NW,315,4.0,8.3,63,0.00,,,0.00,WUHU216HW,2013-03-29 14:05:00,
2013-03-29 10:10:00,48.1,36.2,30.02,NW,315,4.7,8.1,63,0.00,,,0.00,WUHU216HW,2013-03-29 14:10:00,
2013-03-29 10:15:00,48.6,36.7,30.02,WSW,248,6.7,7.8,63,0.00,,,0.00,WUHU216HW,2013-03-29 14:15:00,
2013-03-29 10:20:00,49.2,36.8,30.02,West,270,6.3,9.2,62,0.00,,,0.00,WUHU216HW,2013-03-29 14:20:00,
2013-03-29 10:25:00,50.1,37.7,30.02,WNW,293,5.4,10.1,62,0.00,,,0.00,WUHU216HW,2013-03-29 14:25:00,
2013-03-29 10:30:00,51.4,37.6,30.02,WNW,293,5.4,10.1,59,0.00,,,0.00,WUHU216HW,2013-03-29 14:30:00,
2013-03-29 10:35:00,52.3,38.5,30.02,WNW,293,6.9,8.5,59,0.00,,,0.00,WUHU216HW,2013-03-29 14:35:00,
2013-03-29 10:40:00,53.0,37.8,30.02,West,270,3.8,6.9,56,0.00,,,0.00,WUHU216HW,2013-03-29 14:40:00,
2013-03-29 10:45:00,52.8,37.6,30.02,NW,315,5.8,7.8,56,0.00,,,0.00,WUHU216HW,2013-03-29 14:45:00,
2013-03-29 10:50:00,52.6,36.4,30.02,West,270,5.4,7.8,54,0.00,,,0.00,WUHU216HW,2013-03-29 14:50:00,
2013-03-29 10:55:00,50.8,35.2,30.02,NW,315,5.6,9.6,55,0.00,,,0.00,WUHU216HW,2013-03-29 14:55:00,
2013-03-29 11:00:00,50.2,35.1,30.02,NW,315,6.0,9.6,56,0.00,,,0.00,WUHU216HW,2013-03-29 15:00:00,
2013-03-29 11:05:00,49.9,35.3,30.03,WNW,293,9.2,9.2,57,0.00,,,0.00,WUHU216HW,2013-03-29 15:05:00,
2013-03-29 11:10:00,50.1,35.5,30.03,NW,315,4.9,9.2,57,0.00,,,0.00,WUHU216HW,2013-03-29 15:10:00,
2013-03-29 11:15:00,49.9,35.4,30.02,WNW,293,6.7,9.2,57,0.00,,,0.00,WUHU216HW,2013-03-29 15:15:00,
2013-03-29 11:20:00,49.5,35.4,30.02,North,0,4.0,7.8,58,0.00,,,0.00,WUHU216HW,2013-03-29 15:20:00,
2013-03-29 11:25:00,50.1,36.4,30.02,WNW,293,4.7,8.9,59,0.00,,,0.00,WUHU216HW,2013-03-29 15:25:00,
2013-03-29 11:30:00,50.8,36.7,30.02,WNW,293,3.6,8.9,58,0.00,,,0.00,WUHU216HW,2013-03-29 15:30:00,
2013-03-29 11:35:00,51.4,36.2,30.02,WNW,293,5.6,5.6,56,0.00,,,0.00,WUHU216HW,2013-03-29 15:35:00,
2013-03-29 11:40:00,51.2,35.6,30.02,NW,315,8.1,8.1,55,0.00,,,0.00,WUHU216HW,2013-03-29 15:40:00,
2013-03-29 11:45:00,51.8,37.1,30.02,NW,315,4.7,8.1,57,0.00,,,0.00,WUHU216HW,2013-03-29 15:45:00,
2013-03-29 11:50:00,52.9,37.7,30.02,NW,315,4.0,8.1,56,0.00,,,0.00,WUHU216HW,2013-03-29 15:50:00,
2013-03-29 11:55:00,53.9,37.7,30.02,WNW,293,2.5,6.3,54,0.00,,,0.00,WUHU216HW,2013-03-29 15:55:00,
2013-03-29 12:00:00,54.3,36.0,30.01,WSW,248,3.4,6.7,50,0.00,,,0.00,WUHU216HW,2013-03-29 16:00:00,
2013-03-29 12:05:00,54.1,35.8,30.01,WNW,293,3.8,9.8,50,0.00,,,0.00,WUHU216HW,2013-03-29 16:05:00,
2013-03-29 12:10:00,55.6,37.2,30.01,WNW,293,4.9,9.8,50,0.00,,,0.00,WUHU216HW,2013-03-29 16:10:00,
2013-03-29 12:15:00,55.9,35.9,30.01,NW,315,3.4,7.8,47,0.00,,,0.00,WUHU216HW,2013-03-29 16:15:00,
2013-03-29 12:20:00,56.8,37.3,30.00,NW,315,5.4,7.8,48,0.00,,,0.00,WUHU216HW,2013-03-29 16:20:00,
2013-03-29 12:25:00,58.4,35.9,30.00,WNW,293,6.3,7.4,43,0.00,,,0.00,WUHU216HW,2013-03-29 16:25:00,
2013-03-29 12:30:00,58.6,36.0,30.00,NW,315,4.7,9.2,43,0.00,,,0.00,WUHU216HW,2013-03-29 16:30:00,
2013-03-29 12:35:00,58.3,34.5,30.00,West,270,6.5,9.2,41,0.00,,,0.00,WUHU216HW,2013-03-29 16:35:00,
2013-03-29 12:40:00,57.7,35.8,30.00,NNE,23,4.5,7.6,44,0.00,,,0.00,WUHU216HW,2013-03-29 16:40:00,
2013-03-29 12:45:00,57.7,34.0,30.00,WNW,293,2.2,7.6,41,0.00,,,0.00,WUHU216HW,2013-03-29 16:45:00,
2013-03-29 12:50:00,57.5,35.0,30.00,NW,315,4.3,6.3,43,0.00,,,0.00,WUHU216HW,2013-03-29 16:50:00,
2013-03-29 12:55:00,58.4,35.9,30.00,West,270,3.6,4.5,43,0.00,,,0.00,WUHU216HW,2013-03-29 16:55:00,
2013-03-29 13:00:00,59.2,35.3,30.00,North,0,0.4,4.9,41,0.00,,,0.00,WUHU216HW,2013-03-29 17:00:00,
2013-03-29 13:05:00,59.2,36.6,29.99,NE,45,1.1,4.9,43,0.00,,,0.00,WUHU216HW,2013-03-29 17:05:00,
2013-03-29 13:10:00,60.6,37.8,29.99,South,180,2.5,6.7,43,0.00,,,0.00,WUHU216HW,2013-03-29 17:10:00,
2013-03-29 13:15:00,61.1,36.4,29.99,WNW,293,1.8,7.8,40,0.00,,,0.00,WUHU216HW,2013-03-29 17:15:00,
2013-03-29 13:20:00,59.9,36.0,29.99,WNW,293,4.0,7.8,41,0.00,,,0.00,WUHU216HW,2013-03-29 17:20:00,
2013-03-29 13:25:00,59.2,34.7,29.98,NW,315,2.5,9.6,40,0.00,,,0.00,WUHU216HW,2013-03-29 17:25:00,
2013-03-29 13:30:00,60.1,35.6,29.98,NW,315,3.4,9.6,40,0.00,,,0.00,WUHU216HW,2013-03-29 17:30:00,
2013-03-29 13:35:00,60.0,33.5,29.98,WSW,248,5.4,6.3,37,0.00,,,0.00,WUHU216HW,2013-03-29 17:35:00,
2013-03-29 13:40:00,58.0,33.0,29.98,West,270,3.1,6.9,39,0.00,,,0.00,WUHU216HW,2013-03-29 17:40:00,
2013-03-29 13:45:00,56.7,33.1,29.98,WSW,248,4.0,6.9,41,0.00,,,0.00,WUHU216HW,2013-03-29 17:45:00,
2013-03-29 13:50:00,56.5,32.9,29.98,West,270,5.8,7.6,41,0.00,,,0.00,WUHU216HW,2013-03-29 17:50:00,
2013-03-29 13:55:00,57.3,33.0,29.98,NW,315,3.4,7.6,40,0.00,,,0.00,WUHU216HW,2013-03-29 17:55:00,
2013-03-29 14:00:00,57.6,35.1,29.98,West,270,3.8,7.2,43,0.00,,,0.00,WUHU216HW,2013-03-29 18:00:00,
2013-03-29 14:05:00,57.4,36.7,29.97,NNW,338,4.7,6.7,46,0.00,,,0.00,WUHU216HW,2013-03-29 18:05:00,
2013-03-29 14:10:00,56.5,37.0,29.97,SSE,158,1.1,6.7,48,0.01,,,0.01,WUHU216HW,2013-03-29 18:10:00,
2013-03-29 14:15:00,56.1,37.7,29.97,NNW,338,0.9,4.7,50,0.01,,,0.01,WUHU216HW,2013-03-29 18:15:00,
2013-03-29 14:20:00,55.4,37.1,29.97,NW,315,2.7,2.9,50,0.01,,,0.01,WUHU216HW,2013-03-29 18:20:00,
2013-03-29 14:25:00,54.6,36.3,29.97,East,90,1.1,2.9,50,0.01,,,0.01,WUHU216HW,2013-03-29 18:25:00,
2013-03-29 14:30:00,54.3,36.0,29.97,WNW,293,1.1,2.7,50,0.01,,,0.01,WUHU216HW,2013-03-29 18:30:00,
2013-03-29 14:35:00,54.6,36.8,29.97,ENE,68,0.9,1.8,51,0.01,,,0.01,WUHU216HW,2013-03-29 18:35:00,
2013-03-29 14:40:00,55.5,38.6,29.96,NW,315,0.7,1.1,53,0.01,,,0.01,WUHU216HW,2013-03-29 18:40:00,
2013-03-29 14:45:00,56.3,39.0,29.97,SSW,203,0.7,1.1,52,0.01,,,0.01,WUHU216HW,2013-03-29 18:45:00,
2013-03-29 14:50:00,56.7,38.3,29.97,West,270,1.8,3.8,50,0.01,,,0.01,WUHU216HW,2013-03-29 18:50:00,
2013-03-29 14:55:00,55.8,36.4,29.96,North,0,1.6,3.8,48,0.01,,,0.01,WUHU216HW,2013-03-29 18:55:00,
2013-03-29 15:00:00,56.5,38.1,29.96,West,270,2.0,2.0,50,0.01,,,0.01,WUHU216HW,2013-03-29 19:00:00,
2013-03-29 15:05:00,57.8,38.2,29.96,NW,315,3.6,5.8,48,0.01,,,0.01,WUHU216HW,2013-03-29 19:05:00,
2013-03-29 15:10:00,57.7,36.4,29.96,WSW,248,2.9,5.8,45,0.00,,,0.01,WUHU216HW,2013-03-29 19:10:00,
2013-03-29 15:15:00,57.3,36.6,29.96,SE,135,1.1,4.7,46,0.00,,,0.01,WUHU216HW,2013-03-29 19:15:00,
2013-03-29 15:20:00,57.0,35.2,29.96,West,270,3.4,6.9,44,0.00,,,0.01,WUHU216HW,2013-03-29 19:20:00,
2013-03-29 15:25:00,55.5,34.9,29.96,NW,315,2.5,8.5,46,0.00,,,0.01,WUHU216HW,2013-03-29 19:25:00,
2013-03-29 15:30:00,54.7,33.1,29.96,WNW,293,3.1,8.5,44,0.00,,,0.01,WUHU216HW,2013-03-29 19:30:00,
2013-03-29 15:35:00,54.3,32.7,29.96,NW,315,6.3,8.3,44,0.00,,,0.01,WUHU216HW,2013-03-29 19:35:00,
2013-03-29 15:40:00,54.5,31.7,29.96,NW,315,4.9,9.2,42,0.00,,,0.01,WUHU216HW,2013-03-29 19:40:00,
2013-03-29 15:45:00,54.7,33.6,29.96,North,0,6.9,9.2,45,0.00,,,0.01,WUHU216HW,2013-03-29 19:45:00,
2013-03-29 15:50:00,54.6,33.6,29.96,NNW,338,3.4,8.1,45,0.00,,,0.01,WUHU216HW,2013-03-29 19:50:00,
2013-03-29 15:55:00,55.1,33.5,29.96,WSW,248,8.9,8.9,44,0.00,,,0.01,WUHU216HW,2013-03-29 19:55:00,
2013-03-29 16:00:00,56.4,34.0,29.96,NNW,338,3.4,8.9,43,0.00,,,0.01,WUHU216HW,2013-03-29 20:00:00,
2013-03-29 16:05:00,56.2,33.2,29.96,West,270,5.1,9.8,42,0.00,,,0.01,WUHU216HW,2013-03-29 20:05:00,
2013-03-29 16:10:00,55.6,32.1,29.96,ENE,68,4.9,9.8,41,0.00,,,0.01,WUHU216HW,2013-03-29 20:10:00,
2013-03-29 16:15:00,55.2,33.0,29.96,NNW,338,3.1,7.6,43,0.00,,,0.01,WUHU216HW,2013-03-29 20:15:00,
2013-03-29 16:20:00,55.0,33.3,29.96,North,0,2.7,7.2,44,0.00,,,0.01,WUHU216HW,2013-03-29 20:20:00,
2013-03-29 16:25:00,54.9,32.1,29.96,West,270,6.9,8.1,42,0.00,,,0.01,WUHU216HW,2013-03-29 20:25:00,
2013-03-29 16:30:00,55.7,31.6,29.96,WNW,293,3.6,8.1,40,0.00,,,0.01,WUHU216HW,2013-03-29 20:30:00,
2013-03-29 16:35:00,55.3,29.9,29.96,West,270,7.6,7.6,38,0.00,,,0.01,WUHU216HW,2013-03-29 20:35:00,
2013-03-29 16:40:00,54.6,31.2,29.96,NW,315,2.9,7.6,41,0.00,,,0.01,WUHU216HW,2013-03-29 20:40:00,
2013-03-29 16:45:00,54.7,31.9,29.96,West,270,2.9,6.9,42,0.00,,,0.01,WUHU216HW,2013-03-29 20:45:00,
2013-03-29 16:50:00,53.9,29.9,29.95,WNW,293,6.7,9.2,40,0.00,,,0.01,WUHU216HW,2013-03-29 20:50:00,
2013-03-29 16:55:00,53.9,31.7,29.96,NW,315,3.1,9.2,43,0.00,,,0.01,WUHU216HW,2013-03-29 20:55:00,
2013-03-29 17:00:00,53.7,30.4,29.96,West,270,6.3,10.1,41,0.00,,,0.01,WUHU216HW,2013-03-29 21:00:00,
2013-03-29 17:05:00,53.7,32.8,29.96,NW,315,3.4,10.1,45,0.00,,,0.01,WUHU216HW,2013-03-29 21:05:00,
2013-03-29 17:10:00,53.5,32.0,29.96,NNW,338,8.9,9.2,44,0.00,,,0.01,WUHU216HW,2013-03-29 21:10:00,
2013-03-29 17:15:00,53.4,30.8,29.96,West,270,8.9,9.8,42,0.00,,,0.01,WUHU216HW,2013-03-29 21:15:00,
2013-03-29 17:20:00,53.4,30.7,29.96,NW,315,6.7,10.1,42,0.00,,,0.01,WUHU216HW,2013-03-29 21:20:00,
2013-03-29 17:25:00,52.8,30.7,29.96,WNW,293,6.9,10.1,43,0.00,,,0.01,WUHU216HW,2013-03-29 21:25:00,
2013-03-29 17:30:00,52.6,31.2,29.96,NNW,338,5.6,8.5,44,0.00,,,0.01,WUHU216HW,2013-03-29 21:30:00,
2013-03-29 17:35:00,52.4,29.2,29.97,WNW,293,4.0,11.6,41,0.00,,,0.01,WUHU216HW,2013-03-29 21:35:00,
2013-03-29 17:40:00,52.4,29.2,29.97,NW,315,5.4,11.6,41,0.00,,,0.01,WUHU216HW,2013-03-29 21:40:00,
2013-03-29 17:45:00,52.5,30.5,29.97,West,270,4.0,6.7,43,0.00,,,0.01,WUHU216HW,2013-03-29 21:45:00,
2013-03-29 17:50:00,52.3,30.3,29.97,WSW,248,7.4,7.8,43,0.00,,,0.01,WUHU216HW,2013-03-29 21:50:00,
2013-03-29 17:55:00,51.7,30.3,29.97,NW,315,4.7,9.4,44,0.00,,,0.01,WUHU216HW,2013-03-29 21:55:00,
2013-03-29 18:00:00,51.6,30.9,29.97,North,0,8.5,9.4,45,0.00,,,0.01,WUHU216HW,2013-03-29 22:00:00,
2013-03-29 18:05:00,51.5,30.7,29.98,NW,315,5.1,9.6,45,0.00,,,0.01,WUHU216HW,2013-03-29 22:05:00,
2013-03-29 18:10:00,51.3,31.1,29.98,NW,315,9.2,9.8,46,0.00,,,0.01,WUHU216HW,2013-03-29 22:10:00,
2013-03-29 18:15:00,51.0,30.9,29.98,NNW,338,4.7,9.8,46,0.00,,,0.01,WUHU216HW,2013-03-29 22:15:00,
2013-03-29 18:20:00,51.0,30.8,29.98,NW,315,3.1,9.2,46,0.00,,,0.01,WUHU216HW,2013-03-29 22:20:00,
2013-03-29 18:25:00,51.4,31.8,29.98,WNW,293,4.0,8.5,47,0.00,,,0.01,WUHU216HW,2013-03-29 22:25:00,
2013-03-29 18:30:00,51.4,31.8,29.98,NW,315,4.9,7.2,47,0.00,,,0.01,WUHU216HW,2013-03-29 22:30:00,
2013-03-29 18:35:00,51.4,31.7,29.98,WNW,293,3.8,6.0,47,0.00,,,0.01,WUHU216HW,2013-03-29 22:35:00,
2013-03-29 18:40:00,51.0,31.4,29.98,North,0,4.5,8.3,47,0.00,,,0.01,WUHU216HW,2013-03-29 22:40:00,
2013-03-29 18:45:00,50.6,31.6,29.98,NW,315,7.8,8.5,48,0.00,,,0.01,WUHU216HW,2013-03-29 22:45:00,
2013-03-29 18:50:00,50.1,31.1,29.98,WNW,293,6.9,8.5,48,0.00,,,0.01,WUHU216HW,2013-03-29 22:50:00,
2013-03-29 18:55:00,49.3,30.9,29.98,NNW,338,6.3,7.8,49,0.00,,,0.01,WUHU216HW,2013-03-29 22:55:00,
2013-03-29 19:00:00,48.7,30.3,29.98,WNW,293,2.9,8.5,49,0.00,,,0.01,WUHU216HW,2013-03-29 23:00:00,
2013-03-29 19:05:00,48.4,31.1,29.99,NW,315,3.8,8.5,51,0.00,,,0.01,WUHU216HW,2013-03-29 23:05:00,
2013-03-29 19:10:00,47.8,31.0,29.99,NW,315,4.5,6.3,52,0.00,,,0.01,WUHU216HW,2013-03-29 23:10:00,
2013-03-29 19:15:00,47.6,31.3,29.99,NW,315,5.1,7.2,53,0.00,,,0.01,WUHU216HW,2013-03-29 23:15:00,
2013-03-29 19:20:00,47.3,31.5,29.99,WNW,293,2.9,7.2,54,0.00,,,0.01,WUHU216HW,2013-03-29 23:20:00,
2013-03-29 19:25:00,46.9,31.6,30.00,WNW,293,5.4,5.4,55,0.00,,,0.01,WUHU216HW,2013-03-29 23:25:00,
2013-03-29 19:30:00,46.6,31.3,30.00,West,270,3.6,8.5,55,0.00,,,0.01,WUHU216HW,2013-03-29 23:30:00,
2013-03-29 19:35:00,46.4,32.0,30.00,NNW,338,4.9,8.5,57,0.00,,,0.01,WUHU216HW,2013-03-29 23:35:00,
2013-03-29 19:40:00,46.2,31.9,30.00,West,270,5.4,6.0,57,0.00,,,0.01,WUHU216HW,2013-03-29 23:40:00,
2013-03-29 19:45:00,45.8,31.9,30.00,NW,315,3.1,5.8,58,0.00,,,0.01,WUHU216HW,2013-03-29 23:45:00,
2013-03-29 19:50:00,45.5,31.6,30.00,West,270,4.7,5.6,58,0.00,,,0.01,WUHU216HW,2013-03-29 23:50:00,
2013-03-29 19:55:00,45.1,31.7,30.00,NNW,338,4.3,5.4,59,0.00,,,0.01,WUHU216HW,2013-03-29 23:55:00,
2013-03-29 20:00:00,44.9,31.1,30.00,WNW,293,3.4,5.4,58,0.00,,,0.01,WUHU216HW,2013-03-30 00:00:00,
2013-03-29 20:05:00,44.8,31.0,30.01,NW,315,3.6,5.4,58,0.00,,,0.01,WUHU216HW,2013-03-30 00:05:00,
2013-03-29 20:10:00,44.8,31.4,30.01,West,270,3.8,5.4,59,0.00,,,0.01,WUHU216HW,2013-03-30 00:10:00,
2013-03-29 20:15:00,44.6,30.4,30.01,WNW,293,1.8,5.1,57,0.00,,,0.01,WUHU216HW,2013-03-30 00:15:00,
2013-03-29 20:20:00,44.4,30.2,30.01,WNW,293,3.4,5.1,57,0.00,,,0.01,WUHU216HW,2013-03-30 00:20:00,
2013-03-29 20:25:00,44.0,30.2,30.01,NW,315,4.0,5.8,58,0.00,,,0.01,WUHU216HW,2013-03-30 00:25:00,
2013-03-29 20:30:00,44.0,30.7,30.02,WNW,293,2.9,6.0,59,0.00,,,0.01,WUHU216HW,2013-03-30 00:30:00,
2013-03-29 20:35:00,43.7,30.8,30.01,WNW,293,3.4,6.0,60,0.00,,,0.01,WUHU216HW,2013-03-30 00:35:00,
2013-03-29 20:40:00,43.5,30.6,30.01,West,270,1.8,4.5,60,0.00,,,0.01,WUHU216HW,2013-03-30 00:40:00,
2013-03-29 20:45:00,43.3,30.8,30.02,WNW,293,2.7,4.0,61,0.00,,,0.01,WUHU216HW,2013-03-30 00:45:00,
2013-03-29 20:50:00,43.0,30.9,30.02,WNW,293,2.9,4.0,62,0.00,,,0.01,WUHU216HW,2013-03-30 00:50:00,
2013-03-29 20:55:00,42.6,31.0,30.02,WNW,293,1.8,4.0,63,0.00,,,0.01,WUHU216HW,2013-03-30 00:55:00,
2013-03-29 21:00:00,42.4,30.8,30.02,NW,315,1.6,3.4,63,0.00,,,0.01,WUHU216HW,2013-03-30 01:00:00,
2013-03-29 21:05:00,42.2,30.6,30.02,WNW,293,1.3,3.4,63,0.00,,,0.01,WUHU216HW,2013-03-30 01:05:00,
2013-03-29 21:10:00,42.1,30.5,30.02,WNW,293,2.5,3.4,63,0.00,,,0.01,WUHU216HW,2013-03-30 01:10:00,
2013-03-29 21:15:00,41.9,30.3,30.03,NW,315,1.8,3.4,63,0.00,,,0.01,WUHU216HW,2013-03-30 01:15:00,
2013-03-29 21:20:00,41.9,30.3,30.03,WNW,293,2.5,2.7,63,0.00,,,0.01,WUHU216HW,2013-03-30 01:20:00,
2013-03-29 21:25:00,41.9,30.3,30.03,NW,315,1.1,2.7,63,0.00,,,0.01,WUHU216HW,2013-03-30 01:25:00,
2013-03-29 21:30:00,41.9,30.3,30.03,West,270,1.1,2.5,63,0.00,,,0.01,WUHU216HW,2013-03-30 01:30:00,
2013-03-29 21:35:00,41.9,30.7,30.03,West,270,2.7,2.7,64,0.00,,,0.01,WUHU216HW,2013-03-30 01:35:00,
2013-03-29 21:40:00,41.9,31.1,30.03,WSW,248,2.2,3.4,65,0.00,,,0.01,WUHU216HW,2013-03-30 01:40:00,
2013-03-29 21:45:00,41.9,31.5,30.03,West,270,2.5,3.4,66,0.00,,,0.01,WUHU216HW,2013-03-30 01:45:00,
2013-03-29 21:50:00,42.1,32.0,30.03,NW,315,1.8,4.0,67,0.00,,,0.01,WUHU216HW,2013-03-30 01:50:00,
2013-03-29 21:55:00,42.1,31.6,30.03,WNW,293,4.7,5.4,66,0.00,,,0.01,WUHU216HW,2013-03-30 01:55:00,
2013-03-29 22:00:00,42.2,31.7,30.03,WNW,293,4.7,5.4,66,0.00,,,0.01,WUHU216HW,2013-03-30 02:00:00,
2013-03-29 22:05:00,42.4,31.6,30.03,WNW,293,4.3,5.4,65,0.00,,,0.01,WUHU216HW,2013-03-30 02:05:00,
2013-03-29 22:10:00,42.4,31.6,30.03,West,270,2.9,6.0,65,0.00,,,0.01,WUHU216HW,2013-03-30 02:10:00,
2013-03-29 22:15:00,42.4,31.6,30.03,West,270,2.5,6.0,65,0.00,,,0.01,WUHU216HW,2013-03-30 02:15:00,
2013-03-29 22:20:00,42.2,32.1,30.03,West,270,2.2,4.9,67,0.00,,,0.01,WUHU216HW,2013-03-30 02:20:00,
2013-03-29 22:25:00,42.2,31.7,30.03,West,270,4.0,5.4,66,0.00,,,0.01,WUHU216HW,2013-03-30 02:25:00,
2013-03-29 22:30:00,42.2,31.7,30.03,WSW,248,3.4,5.4,66,0.00,,,0.01,WUHU216HW,2013-03-30 02:30:00,
2013-03-29 22:35:00,42.2,31.7,30.03,West,270,3.6,4.9,66,0.00,,,0.01,WUHU216HW,2013-03-30 02:35:00,
2013-03-29 22:41:00,42.1,32.0,30.03,NW,315,3.4,4.7,67,0.00,,,0.01,WUHU216HW,2013-03-30 02:41:00,
2013-03-29 22:46:00,42.1,32.0,30.03,WSW,248,1.8,4.5,67,0.00,,,0.01,WUHU216HW,2013-03-30 02:46:00,
2013-03-29 22:51:00,42.1,31.6,30.03,West,270,3.1,4.0,66,0.00,,,0.01,WUHU216HW,2013-03-30 02:51:00,
2013-03-29 22:56:00,42.1,32.0,30.03,West,270,4.0,6.3,67,0.00,,,0.01,WUHU216HW,2013-03-30 02:56:00,
2013-03-29 23:01:00,42.1,31.6,30.03,WNW,293,5.8,6.3,66,0.00,,,0.01,WUHU216HW,2013-03-30 03:01:00,
2013-03-29 23:05:00,41.9,32.2,30.03,West,270,4.5,6.0,68,0.00,,,0.01,WUHU216HW,2013-03-30 03:05:00,
2013-03-29 23:10:00,41.7,32.0,30.03,NW,315,3.1,5.4,68,0.00,,,0.01,WUHU216HW,2013-03-30 03:10:00,
2013-03-29 23:15:00,41.7,31.6,30.03,West,270,2.9,5.4,67,0.00,,,0.01,WUHU216HW,2013-03-30 03:15:00,
2013-03-29 23:20:00,41.7,31.6,30.03,WSW,248,2.5,4.7,67,0.00,,,0.01,WUHU216HW,2013-03-30 03:20:00,
2013-03-29 23:25:00,41.5,31.4,30.03,WNW,293,2.5,4.7,67,0.00,,,0.01,WUHU216HW,2013-03-30 03:25:00,
2013-03-29 23:31:00,41.3,31.3,30.03,West,270,2.5,4.3,67,0.00,,,0.01,WUHU216HW,2013-03-30 03:31:00,
2013-03-29 23:36:00,41.3,30.9,30.03,West,270,2.5,4.9,66,0.00,,,0.01,WUHU216HW,2013-03-30 03:36:00,
2013-03-29 23:41:00,41.2,31.2,30.03,WNW,293,4.0,4.9,67,0.00,,,0.01,WUHU216HW,2013-03-30 03:41:00,
2013-03-29 23:46:00,41.2,31.5,30.03,West,270,2.9,5.1,68,0.00,,,0.01,WUHU216HW,2013-03-30 03:46:00,
2013-03-29 23:51:00,41.0,31.3,30.03,WNW,293,3.4,5.1,68,0.00,,,0.01,WUHU216HW,2013-03-30 03:51:00,
2013-03-29 23:56:00,41.0,31.3,30.03,WNW,293,4.0,5.1,68,0.00,,,0.01,WUHU216HW,2013-03-30 03:56:00,